• Currently

    Reported at Lexington, Jim Kelly Field Airport, NE
    7:15 AM CST TUE SEP 26 2017
  • 48°F9°C
  • Overcast
    Overcast
  • Feels Like:48°F9°CDew Point:45°F7°CHumidity:87% Winds:NNW 9 mph 14 kph Pressure:30.18 in1022 hPaVisibility:10.00 miles16090.00 meters
Time Weather Temp Dew Point
Humidity Winds Visibility Pressure Precipitation
1 hr 24 hr
Tuesday, September 26
08:55 08:55 Cloudy Cloudy 49°F9°C 44°F7°C 85% NW 8 mphNW 13 kph 10.0 miles16.1 km 30.18 in1022 hPa 0.00 in0.00 mm --
08:35 08:35 Cloudy Cloudy 49°F9°C 45°F7°C 86% NNW 9 mphNNW 15 kph 10.0 miles16.1 km 30.18 in1022 hPa 0.00 in0.00 mm --
08:15 08:15 Cloudy Cloudy 49°F9°C 45°F7°C 86% NNW 9 mphNNW 15 kph 10.0 miles16.1 km 30.18 in1022 hPa 0.00 in0.00 mm --
07:55 07:55 Cloudy Cloudy 49°F9°C 45°F7°C 86% NW 8 mphNW 13 kph 10.0 miles16.1 km 30.18 in1022 hPa 0.00 in0.00 mm --
07:35 07:35 Cloudy Cloudy 48°F9°C 46°F8°C 90% NW 7 mphNW 11 kph 10.0 miles16.1 km 30.15 in1021 hPa 0.00 in0.00 mm --
07:15 07:15 Cloudy Cloudy 48°F9°C 46°F8°C 90% NW 6 mphNW 9 kph 10.0 miles16.1 km 30.15 in1021 hPa 0.00 in0.00 mm --
06:55 06:55 Cloudy Cloudy 49°F9°C 46°F8°C 89% NNW 9 mphNNW 15 kph 10.0 miles16.1 km 30.12 in1020 hPa 0.00 in0.00 mm --
06:35 06:35 Cloudy Cloudy 49°F9°C 46°F8°C 89% NNW 12 mphNNW 19 kph 10.0 miles16.1 km 30.12 in1020 hPa 0.00 in0.00 mm --
06:15 06:15 Cloudy Cloudy 48°F9°C 46°F8°C 92% NW 7 mphNW 11 kph 10.0 miles16.1 km 30.12 in1020 hPa 0.00 in0.00 mm --
05:55 05:55 Cloudy Cloudy 46°F8°C 44°F7°C 93% WNW 6 mphWNW 9 kph 10.0 miles16.1 km 30.12 in1020 hPa 0.00 in0.00 mm --
05:35 05:35 Partly Cloudy Partly Cloudy 46°F8°C 44°F7°C 93% WNW 7 mphWNW 11 kph 10.0 miles16.1 km 30.12 in1020 hPa 0.00 in0.00 mm --
05:15 05:15 Partly Cloudy Partly Cloudy 46°F8°C 44°F7°C 93% WNW 6 mphWNW 9 kph 10.0 miles16.1 km 30.12 in1020 hPa 0.00 in0.00 mm --
04:55 04:55 Partly Cloudy Partly Cloudy 47°F8°C 45°F7°C 91% NW 6 mphNW 9 kph 10.0 miles16.1 km 30.12 in1020 hPa 0.00 in0.00 mm --
04:35 04:35 Cloudy Cloudy 48°F9°C 46°F8°C 91% NNW 5 mphNNW 7 kph 10.0 miles16.1 km 30.12 in1020 hPa 0.00 in0.00 mm --
04:15 04:15 Mostly Cloudy Mostly Cloudy 48°F9°C 46°F8°C 93% NNW 9 mphNNW 15 kph 10.0 miles16.1 km 30.12 in1020 hPa 0.00 in0.00 mm --
03:55 03:55 Partly Cloudy Partly Cloudy 47°F8°C 46°F8°C 94% NNW 5 mphNNW 7 kph 10.0 miles16.1 km 30.12 in1020 hPa 0.00 in0.00 mm --
03:35 03:35 Mostly Cloudy Mostly Cloudy 46°F8°C 45°F7°C 94% NW 6 mphNW 9 kph 10.0 miles16.1 km 30.12 in1020 hPa 0.00 in0.00 mm --
03:15 03:15 Partly Cloudy Partly Cloudy 47°F8°C 45°F7°C 93% WNW 5 mphWNW 7 kph 10.0 miles16.1 km 30.12 in1020 hPa 0.00 in0.00 mm --
02:55 02:55 Mostly Cloudy Mostly Cloudy 47°F8°C 46°F8°C 94% NW 3 mphNW 6 kph 10.0 miles16.1 km 30.12 in1020 hPa 0.00 in0.00 mm --
02:35 02:35 Partly Cloudy Partly Cloudy 48°F9°C 46°F8°C 92% NW 6 mphNW 9 kph 10.0 miles16.1 km 30.12 in1020 hPa 0.00 in0.00 mm --
02:15 02:15 Cloudy Cloudy 49°F10°C 47°F8°C 92% NW 7 mphNW 11 kph 10.0 miles16.1 km 30.12 in1020 hPa 0.00 in0.00 mm --
01:55 01:55 Cloudy Cloudy 50°F10°C 47°F9°C 91% NW 7 mphNW 11 kph 10.0 miles16.1 km 30.12 in1020 hPa 0.00 in0.00 mm --
01:35 01:35 Cloudy Cloudy 50°F10°C 47°F9°C 91% NNW 7 mphNNW 11 kph 10.0 miles16.1 km 30.12 in1020 hPa 0.00 in0.00 mm --
01:15 01:15 Cloudy Cloudy 50°F10°C 48°F9°C 92% NW 8 mphNW 13 kph 10.0 miles16.1 km 30.12 in1020 hPa 0.00 in0.00 mm --
00:55 00:55 Cloudy Cloudy 50°F10°C 48°F9°C 92% NW 10 mphNW 17 kph 10.0 miles16.1 km 30.12 in1020 hPa 0.00 in0.00 mm --
00:35 00:35 Cloudy Cloudy 50°F10°C 48°F9°C 94% NW 7 mphNW 11 kph 10.0 miles16.1 km 30.12 in1020 hPa 0.00 in0.00 mm --
00:15 00:15 Cloudy With Light Drizzle Cloudy With Light Drizzle 50°F10°C 48°F9°C 93% NNW 6 mphNNW 9 kph 10.0 miles16.1 km 30.12 in1020 hPa 0.00 in0.00 mm --